Regional Weather Roundup
Issued by NWS

Home | Current Version | Previous Version | Graphics & Text | Print | Product List | Glossary On
Versions: 1 2 3 4 5 6 7 8 9 10 11 12 13 14 15 16 17 18 19 20 21 22 23 24 25 26 27 28 29 30 31 32 33 34 35 36 37 38 39 40 41 42 43 44 45 46 47 48 49 50
000
ASUS45 KCYS 301310
RWRWY

WYOMING REGIONAL WEATHER ROUNDUP
NATIONAL WEATHER SERVICE CHEYENNE WY
700 AM MDT THU JUL 30 2015

NOTE:  "FAIR" INDICATES FEW OR NO CLOUDS BELOW 12,000 FEET
WITH NO SIGNIFICANT WEATHER AND/OR OBSTRUCTIONS TO VISIBILITY.

WYZ001-301400-
YELLOWSTONE NATIONAL PARK

CITY           SKY/WX    TMP DP  RH WIND       PRES   REMARKS
LK YELLOWSTONE   N/A     35  32  88 CALM      30.56R
W YELLOWSTONE  NOT AVBL

$$
WYZ002>013-054>058-071-098>099-301400-
NORTHERN WYOMING

CITY           SKY/WX    TMP DP  RH WIND       PRES   REMARKS
JACKSON        CLEAR     39  36  87 CALM      30.49R
CODY           FAIR      52  36  54 CALM      30.37R
GREYBULL       FAIR      53  36  52 SE3       30.31R
WORLAND        FAIR      55  30  38 S6        30.32R
SHERIDAN       FAIR      54  44  69 S3        30.30R
BUFFALO        FAIR      63  36  36 SW7       30.36R
GILLETTE       FAIR      61  41  47 CALM      30.31R
HULETT         FAIR      55  41  58 SW6       30.31R
NEWCASTLE      FAIR      55  37  50 N7        30.31R

$$
WYZ014>020-022>026-101>103-301400-
CENTRAL WYOMING

CITY           SKY/WX    TMP DP  RH WIND       PRES   REMARKS
BIG PINEY      FAIR      40  30  67 N5        30.48S
PINEDALE       FAIR      37  32  81 NW6       30.48S WCI  33
DUBOIS         FAIR      39  30  70 NW12      30.49S WCI  32
LANDER         FAIR      57  32  38 W10       30.38R
RIVERTON       FAIR      53  36  52 NW8       30.39R
CASPER         FAIR      51  32  48 SW5       30.38R
DOUGLAS        FAIR      51  37  58 NW6       30.37R

$$
WYZ021-027>030-104>119-301400-
SOUTHERN WYOMING

CITY           SKY/WX    TMP DP  RH WIND       PRES   REMARKS
EVANSTON       FAIR      52  25  35 CALM      30.47R
KEMMERER       FAIR      43  30  61 N10       30.49R
FORT BRIDGER   SUNNY     54  25  32 W5        30.49R
ROCK SPRINGS   FAIR      49  23  36 E5        30.45R
DIXON          FAIR      46  23  40 CALM      30.46S
RAWLINS        FAIR      46  20  35 CALM      30.45R
SARATOGA       FAIR      45  27  49 CALM      30.48R
LARAMIE        FAIR      46  37  71 S3        30.47R
CHEYENNE       FAIR      58  45  62 W12       30.38R
TORRINGTON     FAIR      56  49  77 CALM      30.28R
PINE BLUFFS    FAIR      52  46  82 CALM      30.34R

$$


USA.gov is the U.S. government's official web portal to all federal, state and local government web resources and services.